Theta_e
340 342 345 349 350 351 339 339 338 339 341 341 342 340 338 337 343 347 338 333 341 335 318 319 317 315 315 321 322 322 322 320 316 314 312 312 312 311 312 311 310 309 309 309 309 309 309 309 308
341 344 347 348 350 342 339 339 340 341 342 341 337 338 339 340 338 339 335 333 340 341 339 322 320 317 317 316 316 316 316 314 312 310 310 310 310 311 311 311 311 311 310 310 309 309 309 309 309
340 345 348 350 350 341 340 340 341 341 341 342 339 335 338 338 340 339 333 335 340 340 337 323 318 315 315 315 315 313 312 311 311 311 310 311 312 312 312 312 312 313 314 314 313 311 311 311 311
344 347 348 349 337 338 339 338 340 342 342 342 341 338 335 335 335 332 333 338 339 339 325 324 322 321 317 315 312 311 310 310 312 312 313 314 315 315 315 315 315 313 313 315 319 315 313 313 313
346 346 346 342 339 338 338 338 339 342 341 342 341 337 334 332 332 333 335 340 339 340 333 325 324 325 323 319 316 314 313 314 315 316 315 316 317 317 318 317 317 315 314 313 313 314 314 314 314
342 343 344 343 343 339 339 340 342 341 344 343 341 339 336 334 336 337 338 340 339 340 338 323 325 325 326 324 320 319 317 315 316 317 317 318 318 318 318 319 319 318 316 314 313 312 312 312 314
343 344 345 340 343 343 341 341 342 343 343 343 342 342 338 338 338 338 339 340 339 340 341 330 325 326 325 326 322 321 317 316 315 316 317 317 320 324 325 319 322 321 316 315 313 312 312 311 313
338 341 345 342 343 343 340 341 340 342 342 341 343 344 341 339 338 338 339 341 342 341 342 342 340 331 333 326 325 322 319 318 318 317 320 326 328 328 328 328 325 317 315 313 313 313 312 315 313
338 345 347 345 342 343 340 341 341 343 342 340 337 341 340 338 338 339 340 341 342 342 341 342 343 342 339 335 332 325 326 329 329 329 327 329 329 330 330 328 322 319 315 315 319 316 324 324 323
341 345 342 339 339 340 341 341 341 345 340 339 339 338 337 338 339 341 341 341 343 343 342 342 340 341 339 335 334 334 335 334 331 331 328 331 328 327 328 325 326 325 325 326 325 323 325 326 326
340 340 340 340 338 340 340 341 343 343 343 340 339 337 340 341 341 341 341 342 343 344 343 343 342 340 338 335 335 338 337 335 332 328 325 331 329 327 327 327 327 326 327 327 326 326 325 326 326
340 338 339 339 340 341 341 341 344 344 343 341 340 340 341 342 342 342 342 343 343 344 344 345 343 341 338 337 336 338 337 336 334 333 330 331 331 329 326 327 326 327 326 326 326 325 325 324 324
339 338 339 340 340 339 341 341 343 343 342 339 340 340 341 342 343 343 343 343 342 342 345 347 346 343 341 337 337 337 337 337 335 334 332 332 330 329 329 328 326 326 326 327 326 325 325 326 326
338 341 339 339 339 340 343 343 344 345 342 339 340 341 342 343 342 341 340 336 333 333 337 341 347 345 343 343 337 338 336 337 336 334 332 331 331 331 330 329 328 328 327 327 326 325 325 326 325
339 341 339 339 339 339 341 341 345 344 343 341 341 341 342 341 341 340 336 335 331 334 336 341 348 348 346 345 336 337 336 338 338 335 334 332 330 332 328 330 328 329 328 327 327 326 326 327 326
340 338 342 339 339 341 341 342 339 344 344 343 342 342 341 342 339 338 337 337 332 330 333 339 347 349 348 346 343 335 336 338 338 336 334 333 330 333 333 331 330 329 326 328 328 326 327 326 326
339 342 341 341 338 338 342 348 343 344 344 344 343 343 341 340 340 338 338 337 332 325 337 337 346 348 348 347 344 338 339 338 340 338 334 334 332 333 332 331 331 329 327 327 327 327 328 327 326
340 340 339 339 338 340 341 346 344 342 341 342 343 340 339 341 341 340 339 336 334 325 326 328 341 349 348 348 344 342 339 339 340 339 336 334 332 333 333 332 332 330 328 327 329 328 329 326 327
335 336 337 339 339 340 342 342 343 342 341 341 339 340 341 342 342 341 339 337 336 327 327 328 339 348 347 347 345 343 341 340 340 337 336 334 333 333 334 332 333 331 326 327 329 324 330 328 328
335 336 337 338 336 339 341 342 341 341 341 340 341 341 340 342 343 341 341 340 338 337 328 329 342 346 346 344 344 342 339 338 338 337 335 334 332 332 334 334 331 331 328 329 327 318 328 329 327
335 336 335 335 335 337 339 345 342 338 336 340 340 340 342 341 340 342 342 342 341 339 332 333 336 342 337 343 341 338 337 338 338 335 335 333 332 333 334 334 334 330 329 324 329 329 319 327 329
336 335 334 334 338 342 340 350 346 343 341 340 340 340 341 340 341 341 341 343 344 342 343 339 333 339 335 339 340 339 338 335 335 337 335 333 332 331 333 334 334 332 326 328 328 329 325 328 328
335 334 333 339 337 341 341 341 346 338 337 336 339 339 339 338 337 337 338 339 343 346 344 342 342 341 341 340 339 340 338 336 336 337 335 334 334 334 333 334 334 333 327 326 328 327 329 328 328
334 336 339 341 341 347 342 343 347 344 342 338 339 335 334 335 337 337 338 337 338 346 346 344 344 344 344 344 341 337 338 339 337 336 335 335 334 334 333 333 334 333 331 326 328 331 328 323 323
335 339 339 342 351 345 342 343 345 340 338 339 335 335 335 335 336 337 339 338 339 340 342 344 344 343 344 344 343 342 339 335 335 336 333 336 335 335 334 334 330 332 331 328 328 330 330 328 325
334 335 339 342 341 339 341 345 342 337 334 336 334 336 336 337 336 336 339 337 336 336 341 340 341 343 343 342 342 341 340 339 338 335 336 335 335 336 335 334 332 332 331 329 329 330 328 328 329
334 334 336 341 337 340 344 343 341 337 339 338 337 337 338 338 336 334 336 336 334 334 339 339 339 341 344 344 342 340 340 339 338 338 337 337 334 335 336 334 334 333 331 328 330 331 330 327 327
333 335 340 338 345 343 344 345 347 342 341 341 339 338 339 338 334 332 334 335 335 334 333 339 339 339 341 341 338 340 339 338 338 337 336 335 335 335 336 336 335 334 331 331 331 331 330 329 328
335 336 338 340 343 342 342 339 340 338 337 338 337 339 339 337 333 332 333 335 337 336 334 338 339 342 340 339 339 339 340 339 338 337 336 333 333 331 334 331 333 333 331 331 330 330 331 330 329
335 337 337 339 343 343 342 341 338 337 337 335 336 340 340 336 335 333 333 334 337 336 336 339 339 340 340 338 339 339 340 340 339 337 335 337 334 331 328 332 333 332 331 333 328 329 329 330 322
Wind_Speed
10 6 6 7 6 8 15 17 14 14 15 11 8 17 18 18 12 9 12 11 10 3 8 9 6 6 5 5 3 2 2 3 5 5 5 4 4 4 4 6 6 6 6 6 5 4 3 2 1
9 6 12 11 9 5 12 17 13 10 11 13 18 20 17 15 16 17 14 13 8 7 5 8 7 6 6 4 3 1 1 2 2 3 3 4 4 5 6 7 7 7 7 6 6 5 4 4 3
7 6 15 13 7 1 13 14 9 13 10 13 26 20 14 12 17 14 16 14 12 12 7 3 6 7 7 6 3 3 2 2 2 3 4 4 5 6 7 7 8 8 7 8 7 6 5 4 4
8 13 14 13 8 10 11 7 4 15 12 14 21 13 14 9 13 15 17 13 14 7 6 6 7 8 8 8 6 5 4 4 4 4 5 5 5 6 6 7 7 7 6 6 6 6 5 4 4
16 8 3 7 15 3 10 7 4 7 14 18 21 17 17 14 16 17 17 12 12 10 0 6 6 7 8 8 7 6 5 6 5 5 4 5 5 6 7 7 8 8 7 5 5 5 5 4 3
13 11 8 6 21 8 9 7 9 25 23 23 22 20 17 15 15 15 14 12 11 8 5 2 4 5 7 8 8 8 6 6 6 5 4 4 5 7 8 8 8 9 9 8 6 4 4 4 3
16 11 3 16 9 5 9 15 17 11 9 10 23 10 14 14 14 14 12 10 11 10 8 5 5 4 5 7 8 8 7 7 7 6 5 6 8 11 12 7 6 9 10 9 8 7 6 4 3
29 6 16 3 11 4 3 10 12 11 8 10 22 13 13 19 14 12 11 9 9 8 7 3 3 2 2 6 6 7 8 8 9 9 11 8 7 9 7 8 7 12 9 8 8 8 9 12 11
29 4 11 26 12 14 11 9 10 27 49 23 12 22 20 13 14 12 11 9 8 9 8 9 7 5 2 7 5 5 8 8 8 8 11 7 10 8 3 8 12 10 9 6 10 10 12 9 12
10 8 11 7 11 7 9 14 9 20 33 3 3 18 15 14 12 12 9 12 13 13 11 10 7 7 10 8 7 4 6 6 8 8 6 10 3 4 2 11 9 11 13 7 11 9 6 7 4
6 5 13 12 6 7 11 13 21 13 12 21 15 18 16 13 9 11 9 7 13 14 14 13 13 12 9 10 6 3 4 1 3 5 1 1 2 5 7 10 6 14 7 9 10 9 9 2 4
7 8 7 11 5 11 13 9 16 11 12 20 17 16 14 12 9 9 8 9 9 16 18 15 14 16 13 9 6 9 7 5 6 4 8 4 2 5 2 5 3 7 2 7 6 5 9 1 2
13 10 15 2 12 9 2 11 7 11 8 5 17 13 12 9 12 7 4 2 7 7 12 13 15 19 16 18 9 11 8 7 8 9 7 4 4 8 2 7 1 5 3 5 5 5 5 2 1
20 37 42 25 5 12 6 15 2 7 8 8 11 12 11 10 1 1 2 4 6 8 7 8 14 18 19 18 15 17 10 9 11 7 10 9 6 9 4 4 3 4 5 4 6 7 4 3 2
36 19 5 40 16 11 19 18 13 2 8 12 11 7 4 4 9 5 3 4 4 4 5 9 13 18 19 18 17 17 12 8 10 7 15 14 10 8 7 2 4 5 7 4 5 4 5 3 4
10 10 8 28 20 10 18 6 33 17 10 10 10 11 7 6 5 10 6 1 3 4 4 11 13 19 21 22 18 15 12 12 13 12 14 15 10 9 5 1 4 9 8 4 5 3 3 3 3
3 7 12 22 33 27 2 14 27 18 10 11 9 7 9 7 6 7 3 2 2 3 4 7 17 18 20 17 17 14 12 14 12 13 14 14 10 8 8 4 8 11 2 4 5 3 5 2 4
12 20 19 7 7 23 7 18 13 11 11 9 9 8 10 8 13 12 6 3 4 3 5 6 13 18 19 17 15 11 12 14 12 12 14 16 13 10 12 4 10 14 1 5 7 7 4 5 3
14 16 16 9 13 17 12 10 6 18 10 9 7 11 9 8 14 9 5 3 6 4 4 5 10 16 20 18 15 12 13 14 14 12 13 15 14 10 14 9 9 11 6 10 10 7 5 5 5
14 16 14 12 13 7 9 11 16 27 25 11 13 13 10 11 11 10 8 6 4 9 6 7 8 13 17 14 13 11 12 15 14 10 13 18 15 13 12 13 7 9 6 10 10 7 6 5 7
17 13 15 17 21 5 14 15 11 7 35 33 15 7 12 2 2 10 11 10 9 12 9 7 9 12 12 13 12 14 14 14 14 12 13 17 18 17 15 13 11 10 11 9 11 9 6 6 4
14 19 21 18 18 10 20 4 7 9 13 25 31 52 13 8 7 5 5 13 12 12 9 9 10 12 11 17 10 14 10 10 11 9 12 16 16 13 16 16 14 13 12 4 8 8 7 9 6
15 18 16 12 11 7 9 1 3 5 6 23 20 7 4 5 5 4 1 1 2 8 10 7 8 9 9 9 14 10 13 12 12 15 13 11 14 14 13 16 17 17 12 12 12 12 9 9 11
11 14 2 10 4 6 6 8 3 9 9 18 8 6 2 4 9 13 15 15 15 4 1 4 8 7 9 10 9 17 13 11 12 12 10 13 16 19 18 17 20 16 15 12 13 13 12 16 14
10 14 9 4 2 5 8 8 8 17 16 26 11 11 5 6 13 12 13 12 13 10 6 7 6 7 7 9 11 12 13 15 18 19 17 14 17 17 22 16 18 18 17 15 14 15 16 16 15
13 13 7 14 11 13 7 2 2 14 29 38 6 9 5 9 9 8 12 11 11 8 7 8 7 5 5 9 10 12 14 15 14 14 9 13 16 15 17 15 17 17 20 19 16 16 19 17 18
7 10 13 15 14 4 8 8 11 6 17 34 16 12 8 6 5 9 14 12 11 12 9 11 8 3 1 3 9 15 15 18 18 16 16 12 19 15 15 12 15 15 17 18 19 20 19 17 20
12 9 7 5 11 7 7 6 6 9 20 14 26 14 10 2 10 8 12 11 10 11 13 11 9 7 5 10 14 13 12 13 13 13 14 15 17 18 15 9 11 17 18 18 17 19 18 18 20
4 4 1 3 3 2 2 6 6 4 5 14 34 6 9 7 9 8 10 10 9 10 11 10 9 8 11 11 10 9 11 12 13 15 13 12 14 16 17 17 15 16 15 16 19 22 19 19 20
10 13 12 4 5 4 3 3 13 19 25 36 25 10 9 4 8 9 10 11 9 10 10 9 6 8 7 8 8 6 10 11 11 15 14 13 12 12 14 11 11 12 16 16 15 17 17 15 18
Wind_Direction
283 302 16 278 250 275 71 72 60 58 74 73 64 64 68 44 25 93 114 113 115 133 91 66 75 96 126 135 156 213 252 302 316 324 336 348 2 19 20 11 11 14 13 16 25 22 355 353 354
293 274 264 271 265 289 71 80 65 73 128 118 58 64 75 71 86 117 118 125 115 90 85 52 63 84 106 113 122 174 258 332 343 12 15 12 28 29 26 32 35 30 26 26 33 38 30 5 2
298 205 255 236 214 356 81 91 114 109 86 76 92 64 69 100 97 108 126 132 127 128 164 63 80 80 85 85 93 89 69 58 59 67 59 61 53 43 43 41 37 34 30 24 26 37 42 36 13
297 265 253 266 61 39 80 107 119 136 104 101 102 84 81 87 114 125 134 135 132 141 109 102 91 80 74 71 67 66 78 81 78 71 77 74 65 53 42 38 35 30 22 20 14 13 31 42 32
275 319 299 292 98 46 97 110 305 113 116 92 102 106 100 103 117 131 140 137 132 157 162 93 91 88 84 80 75 71 72 75 69 66 71 63 54 41 38 30 22 19 19 16 6 357 357 14 33
271 154 231 335 8 145 107 83 45 94 45 44 111 106 112 126 131 140 142 142 139 159 203 71 114 98 88 80 76 74 78 81 74 66 57 42 32 15 12 11 8 3 358 3 7 4 346 346 6
247 335 355 100 327 313 76 99 70 47 84 119 100 114 135 146 139 145 149 147 149 164 225 179 146 128 101 81 75 76 75 72 70 63 49 44 52 31 19 359 352 356 346 347 354 11 26 28 30
51 53 354 338 173 31 89 91 100 94 100 79 130 135 151 139 150 148 151 153 164 170 176 224 278 129 136 83 58 70 73 63 59 58 65 56 39 20 10 13 354 338 333 344 10 28 54 67 58
47 56 216 247 110 172 217 121 74 63 31 36 56 106 126 141 153 154 156 169 175 177 198 199 216 230 257 253 321 47 65 55 45 48 52 17 7 342 315 2 358 344 357 45 49 70 62 59 57
111 221 230 21 28 14 43 102 126 95 127 171 326 106 124 141 157 161 185 193 186 193 199 202 200 196 188 236 284 315 40 31 39 25 3 5 329 207 234 316 353 7 23 25 27 43 23 349 354
357 71 18 46 357 359 60 67 90 82 127 172 142 127 137 145 173 187 213 201 217 218 201 204 200 204 199 235 280 23 301 335 256 288 58 339 183 295 293 314 344 356 359 15 341 348 348 319 204
211 78 64 47 30 34 31 78 93 87 65 171 132 139 149 176 173 211 215 218 246 209 226 203 206 204 191 204 223 204 195 233 279 276 328 36 88 315 250 245 287 323 348 321 354 323 284 328 285
325 38 27 94 69 32 314 54 76 93 105 122 134 153 178 165 202 190 178 285 291 291 227 211 212 216 210 211 218 217 188 238 234 268 287 205 181 254 291 255 230 312 307 321 307 309 305 187 314
22 36 9 333 12 91 53 27 21 116 144 156 149 187 173 145 71 34 338 4 349 306 274 262 203 220 224 241 195 229 190 213 221 246 247 277 177 262 184 301 274 304 318 307 318 292 229 285 220
76 63 285 284 278 109 77 26 305 51 181 159 192 184 185 199 174 170 89 69 352 28 275 214 212 228 233 242 221 221 217 203 229 218 240 261 253 253 253 213 297 286 272 325 320 311 337 358 309
46 5 131 274 271 148 106 204 250 245 177 173 200 196 190 181 241 135 134 87 338 135 213 203 203 230 230 240 241 224 204 207 235 225 249 269 256 215 248 185 298 259 299 313 306 340 275 278 268
271 223 199 234 351 324 88 180 220 184 193 161 187 188 203 182 166 158 150 140 236 148 135 203 192 215 235 234 227 228 207 224 225 243 227 255 268 245 275 198 275 277 216 284 271 267 299 277 288
228 237 234 110 213 322 48 104 137 147 163 174 191 179 174 227 182 159 167 170 241 182 154 185 191 200 222 240 220 236 198 225 230 254 233 241 254 216 252 248 256 291 201 283 244 272 249 236 267
313 320 348 112 155 191 59 89 150 165 143 153 188 179 207 216 145 149 170 196 267 243 215 198 191 205 213 218 220 214 225 231 234 236 239 229 245 223 241 262 266 285 233 239 266 261 291 318 271
291 308 346 308 1 12 101 63 41 28 322 185 205 176 235 205 171 164 189 207 236 276 259 236 209 218 213 207 224 228 234 243 238 247 229 230 234 230 231 259 215 268 253 269 306 274 218 221 270
317 317 346 332 325 331 12 58 51 54 287 314 325 225 179 258 46 178 204 213 232 269 275 253 233 229 220 190 229 234 228 216 220 245 239 237 242 227 231 241 258 237 257 249 279 301 244 248 310
308 347 331 329 360 46 1 68 81 239 284 320 97 251 179 143 188 174 223 233 223 236 265 270 249 225 231 196 210 237 249 248 270 247 247 246 257 250 223 242 247 248 250 217 264 291 280 268 282
315 322 319 20 10 350 351 22 258 304 250 246 267 99 115 207 144 192 201 143 183 217 232 264 270 240 221 247 210 235 264 239 271 264 246 246 243 243 244 229 246 255 254 227 234 245 258 251 249
301 288 228 52 26 339 205 175 267 228 235 253 169 96 193 243 139 78 54 46 39 86 189 237 237 258 260 240 268 232 222 251 251 269 234 248 250 253 257 231 238 252 253 254 240 253 262 259 248
237 299 317 271 36 237 239 232 185 221 242 278 158 164 123 21 57 57 57 36 36 27 22 347 259 241 262 260 264 277 277 259 252 263 247 248 244 240 252 259 236 245 264 257 248 242 253 256 272
317 299 310 321 327 349 177 95 231 275 306 292 166 129 89 54 51 57 85 51 28 18 24 10 358 242 246 280 274 288 278 272 277 279 278 252 243 252 241 251 249 241 255 263 257 251 255 258 263
321 319 345 333 289 329 69 5 306 316 277 281 183 120 106 91 85 62 87 69 40 31 47 37 10 334 297 267 285 298 290 273 280 261 264 261 245 246 272 232 239 250 262 263 258 256 251 263 252
246 294 329 335 316 19 144 207 229 187 238 329 338 137 117 177 75 56 83 71 53 35 28 25 20 338 308 326 307 304 304 289 289 281 277 246 244 239 234 244 255 259 267 262 261 263 258 262 265
195 231 255 298 311 11 294 124 125 92 162 273 247 142 137 99 62 55 73 61 62 36 25 22 24 31 6 347 357 353 328 321 312 305 292 267 254 248 237 249 252 264 276 269 265 260 254 254 269
28 336 302 311 336 218 214 166 191 180 206 223 247 140 90 54 85 63 51 52 58 45 31 23 27 8 1 347 337 318 339 334 311 306 298 281 254 248 253 266 266 272 278 275 280 273 268 260 255